When you browse on this site, cookies collect data to enhance your experience and personalize the content and advertising you see.
Visit our Privacy Policy to learn more. By continuing to use the site, you agree to this use of cookies and data.
  • en Belgique
  • Liste des pays
  • À 7 jours
  • Température de l'eau
  • Carte météo
  • Widgets météo
  • user-avatar
    Se connecter

    Météo par heure à Elbasan

    Ce jour, 18 Septembre, Mercredi

    Heure Température Précipitation Vent Pression Humidité
    00:00 +20°C° 0 mm 1 m/s 735 mmHg 62%
    01:00 +18°C° 0 mm 0 m/s 735 mmHg 62%
    02:00 +20°C° 0 mm 1 m/s 735 mmHg 62%
    03:00 +20°C° 0 mm 1 m/s 734 mmHg 62%
    04:00 +20°C° 0 mm 1 m/s 734 mmHg 63%
    05:00 +21°C° 0 mm 1 m/s 734 mmHg 59%
    06:00 +22°C° 0 mm 1 m/s 735 mmHg 55%
    07:00 +24°C° 0 mm 1 m/s 735 mmHg 50%
    08:00 +25°C° 0 mm 1 m/s 735 mmHg 47%
    09:00 +27°C° 0 mm 2 m/s 735 mmHg 44%
    10:00 +29°C° 0 mm 2 m/s 735 mmHg 41%
    11:00 +29°C° 0 mm 2 m/s 735 mmHg 40%
    12:00 +30°C° 0 mm 3 m/s 735 mmHg 38%
    13:00 +32°C° 0 mm 4 m/s 735 mmHg 36%
    14:00 +30°C° 0 mm 3 m/s 735 mmHg 39%
    15:00 +30°C° 0 mm 3 m/s 735 mmHg 43%
    16:00 +29°C° 0 mm 3 m/s 734 mmHg 47%
    17:00 +27°C° 0 mm 2 m/s 735 mmHg 57%
    18:00 +25°C° 0 mm 2 m/s 735 mmHg 67%
    19:00 +23°C° 0 mm 1 m/s 735 mmHg 77%
    20:00 +22°C° 0.1 mm 1 m/s 736 mmHg 78%
    21:00 +22°C° 0.1 mm 1 m/s 736 mmHg 80%
    22:00 +22°C° 0.1 mm 1 m/s 736 mmHg 81%
    23:00 +21°C° 0 mm 1 m/s 736 mmHg 80%

    Demain, 19 Septembre, Jeudi

    Heure Température Précipitation Vent Pression Humidité
    00:00 +21°C° 0 mm 1 m/s 736 mmHg 79%
    01:00 +21°C° 0 mm 1 m/s 736 mmHg 78%
    02:00 +21°C° 0 mm 1 m/s 736 mmHg 77%
    03:00 +20°C° 0 mm 1 m/s 736 mmHg 76%
    04:00 +20°C° 0 mm 1 m/s 735 mmHg 75%
    05:00 +21°C° 0 mm 1 m/s 735 mmHg 71%
    06:00 +22°C° 0 mm 1 m/s 735 mmHg 66%
    07:00 +23°C° 0 mm 1 m/s 735 mmHg 62%
    08:00 +25°C° 0.1 mm 1 m/s 736 mmHg 55%
    09:00 +27°C° 0.1 mm 1 m/s 736 mmHg 49%
    10:00 +29°C° 0.1 mm 2 m/s 736 mmHg 43%
    11:00 +29°C° 0.5 mm 2 m/s 736 mmHg 44%
    12:00 +29°C° 0.5 mm 3 m/s 736 mmHg 45%
    13:00 +29°C° 0.5 mm 4 m/s 735 mmHg 46%
    14:00 +28°C° 0.6 mm 4 m/s 735 mmHg 47%
    15:00 +28°C° 0.6 mm 3 m/s 735 mmHg 48%
    16:00 +28°C° 0.6 mm 2 m/s 735 mmHg 49%
    17:00 +26°C° 0.5 mm 2 m/s 736 mmHg 56%
    18:00 +24°C° 0.5 mm 1 m/s 736 mmHg 64%
    19:00 +22°C° 0.5 mm 1 m/s 736 mmHg 71%
    20:00 +22°C° 0.5 mm 1 m/s 736 mmHg 74%
    21:00 +21°C° 0.5 mm 1 m/s 737 mmHg 76%
    22:00 +21°C° 0.5 mm 1 m/s 737 mmHg 79%
    23:00 +21°C° 0.4 mm 1 m/s 737 mmHg 80%

    Après-demain, 20 Septembre, Vendredi

    Heure Température Précipitation Vent Pression Humidité
    00:00 +20°C° 0.4 mm 1 m/s 737 mmHg 81%
    01:00 +20°C° 0.4 mm 1 m/s 737 mmHg 82%
    02:00 +19°C° 0 mm 1 m/s 737 mmHg 82%
    03:00 +19°C° 0 mm 1 m/s 737 mmHg 82%
    04:00 +18°C° 0 mm 2 m/s 736 mmHg 82%
    05:00 +18°C° 0 mm 2 m/s 737 mmHg 79%
    06:00 +18°C° 0 mm 2 m/s 737 mmHg 76%
    07:00 +18°C° 0 mm 2 m/s 737 mmHg 74%
    08:00 +20°C° 0 mm 2 m/s 737 mmHg 66%
    09:00 +23°C° 0 mm 2 m/s 738 mmHg 59%
    10:00 +25°C° 0 mm 2 m/s 738 mmHg 52%
    11:00 +26°C° 0 mm 2 m/s 738 mmHg 48%
    12:00 +27°C° 0 mm 2 m/s 738 mmHg 44%
    13:00 +27°C° 0 mm 2 m/s 738 mmHg 40%
    14:00 +27°C° 0 mm 2 m/s 737 mmHg 40%
    15:00 +27°C° 0 mm 2 m/s 737 mmHg 40%
    16:00 +27°C° 0 mm 2 m/s 737 mmHg 39%
    17:00 +25°C° 0 mm 2 m/s 738 mmHg 43%
    18:00 +23°C° 0 mm 2 m/s 738 mmHg 46%
    19:00 +20°C° 0 mm 2 m/s 738 mmHg 50%
    20:00 +19°C° 0 mm 2 m/s 739 mmHg 50%
    21:00 +18°C° 0 mm 2 m/s 739 mmHg 50%
    22:00 +18°C° 0 mm 2 m/s 739 mmHg 50%
    23:00 +17°C° 0 mm 2 m/s 739 mmHg 48%

    21 Septembre, Samedi

    Heure Température Précipitation Vent Pression Humidité
    00:00 +17°C° 0 mm 2 m/s 740 mmHg 46%
    01:00 +16°C° 0 mm 3 m/s 740 mmHg 44%
    02:00 +16°C° 0 mm 3 m/s 740 mmHg 44%
    03:00 +14°C° 0 mm 3 m/s 740 mmHg 44%
    04:00 +14°C° 0 mm 3 m/s 740 mmHg 43%
    05:00 +16°C° 0 mm 3 m/s 740 mmHg 42%
    06:00 +17°C° 0 mm 3 m/s 740 mmHg 40%
    07:00 +18°C° 0 mm 3 m/s 740 mmHg 39%
    08:00 +20°C° 0 mm 2 m/s 740 mmHg 36%
    09:00 +23°C° 0 mm 2 m/s 741 mmHg 33%
    10:00 +26°C° 0 mm 2 m/s 741 mmHg 31%
    11:00 +27°C° 0 mm 2 m/s 741 mmHg 31%
    12:00 +28°C° 0 mm 2 m/s 741 mmHg 31%
    13:00 +29°C° 0 mm 2 m/s 740 mmHg 31%
    14:00 +28°C° 0 mm 2 m/s 740 mmHg 34%
    15:00 +27°C° 0 mm 3 m/s 740 mmHg 37%
    16:00 +27°C° 0 mm 3 m/s 740 mmHg 40%
    17:00 +25°C° 0 mm 2 m/s 740 mmHg 49%
    18:00 +22°C° 0 mm 1 m/s 740 mmHg 57%
    19:00 +18°C° 0 mm 0 m/s 740 mmHg 65%
    20:00 +18°C° 0 mm 0 m/s 740 mmHg 67%
    21:00 +17°C° 0 mm 0 m/s 740 mmHg 69%
    22:00 +19°C° 0 mm 1 m/s 740 mmHg 71%
    23:00 +19°C° 0 mm 1 m/s 740 mmHg 71%

    22 Septembre, Dimanche

    Heure Température Précipitation Vent Pression Humidité
    00:00 +19°C° 0 mm 1 m/s 740 mmHg 71%
    01:00 +18°C° 0 mm 1 m/s 740 mmHg 72%
    02:00 +18°C° 0 mm 1 m/s 739 mmHg 71%
    03:00 +18°C° 0 mm 1 m/s 739 mmHg 71%
    04:00 +18°C° 0 mm 1 m/s 739 mmHg 71%
    05:00 +19°C° 0 mm 1 m/s 739 mmHg 67%
    06:00 +20°C° 0 mm 1 m/s 739 mmHg 63%
    07:00 +21°C° 0 mm 1 m/s 739 mmHg 58%
    08:00 +23°C° 0 mm 1 m/s 739 mmHg 53%
    09:00 +25°C° 0 mm 1 m/s 740 mmHg 47%
    10:00 +26°C° 0 mm 1 m/s 740 mmHg 41%
    11:00 +27°C° 0 mm 2 m/s 739 mmHg 38%
    12:00 +28°C° 0 mm 2 m/s 739 mmHg 35%
    13:00 +29°C° 0 mm 3 m/s 738 mmHg 31%
    14:00 +28°C° 0 mm 3 m/s 738 mmHg 34%
    15:00 +28°C° 0 mm 2 m/s 738 mmHg 36%
    16:00 +27°C° 0 mm 2 m/s 737 mmHg 38%
    17:00 +25°C° 0 mm 2 m/s 737 mmHg 45%
    18:00 +23°C° 0 mm 1 m/s 737 mmHg 51%
    19:00 +19°C° 0 mm 0 m/s 737 mmHg 57%
    20:00 +19°C° 0 mm 0 m/s 737 mmHg 58%
    21:00 +19°C° 0 mm 0 m/s 738 mmHg 59%
    22:00 +19°C° 0 mm 0 m/s 738 mmHg 60%
    23:00 +18°C° 0 mm 0 m/s 737 mmHg 60%

    23 Septembre, Lundi

    Heure Température Précipitation Vent Pression Humidité
    00:00 +18°C° 0 mm 0 m/s 737 mmHg 60%
    01:00 +20°C° 0 mm 1 m/s 737 mmHg 60%
    02:00 +21°C° 0 mm 1 m/s 737 mmHg 59%
    03:00 +21°C° 0 mm 1 m/s 737 mmHg 57%
    04:00 +21°C° 0 mm 1 m/s 737 mmHg 55%
    05:00 +22°C° 0 mm 1 m/s 736 mmHg 52%
    06:00 +22°C° 0 mm 1 m/s 736 mmHg 49%
    07:00 +23°C° 0 mm 1 m/s 736 mmHg 46%
    08:00 +24°C° 0 mm 1 m/s 736 mmHg 45%
    09:00 +25°C° 0 mm 1 m/s 736 mmHg 44%
    10:00 +26°C° 0 mm 1 m/s 736 mmHg 43%
    11:00 +27°C° 0 mm 1 m/s 736 mmHg 41%
    12:00 +28°C° 0 mm 2 m/s 735 mmHg 40%
    13:00 +29°C° 0 mm 2 m/s 735 mmHg 39%
    14:00 +28°C° 0.1 mm 3 m/s 734 mmHg 43%
    15:00 +28°C° 0.1 mm 3 m/s 734 mmHg 47%
    16:00 +28°C° 0.1 mm 3 m/s 733 mmHg 51%
    17:00 +26°C° 0.6 mm 2 m/s 733 mmHg 59%
    18:00 +24°C° 0.6 mm 2 m/s 733 mmHg 67%
    19:00 +23°C° 0.6 mm 1 m/s 733 mmHg 75%
    20:00 +22°C° 0.7 mm 1 m/s 732 mmHg 78%
    21:00 +22°C° 0.7 mm 1 m/s 732 mmHg 80%
    22:00 +22°C° 0.7 mm 1 m/s 732 mmHg 83%
    23:00 +22°C° 0.6 mm 1 m/s 732 mmHg 84%
    Voir plus